This demonstration page uses our WeatherBlox Daily Observations layout. Learn more.

Left ArrowRight Arrow

Hourly Observations for October 11, 2018

Temp ( °F °C ) Dew Point ( °F °C ) Humidity (%) Winds ( mph kmh ) Pressure ( in mb ) Visibility ( mi km ) Precip ( " mm )
12:53 am 00:53 Clear 34 1.1 30 -1.1 85 85 NW 9 15 30.18 1022 10 16 0.00 0.00
1:53 am 01:53 Clear 32 0 29 -1.7 88 88 NW 7 11 30.19 1023 10 16 0.00 0.00
2:53 am 02:53 Clear 32 0 28 -2.2 85 85 NW 9 15 30.20 1023 10 16 0.00 0.00
3:27 am 03:27 Mostly Cloudy 32 0 28 -2.2 85 85 NW 8 13 30.27 1025 10 16 0.00 0.00
3:53 am 03:53 Mostly Cloudy 32 0 28 -2.2 85 85 NW 7 11 30.22 1023 10 16 0.00 0.00
4:04 am 04:04 Partly Cloudy 30 -1 28 -2 93 93 WNW 7 11 30.27 1025 10 16 0.00 0.00
4:53 am 04:53 Clear 30 -1.1 27 -2.8 88 88 NW 9 15 30.22 1024 10 16 0.00 0.00
5:53 am 05:53 Clear 29 -1.7 26 -3.3 89 89 WNW 7 11 30.23 1024 10 16 0.00 0.00
6:53 am 06:53 Clear 28 -2.2 26 -3.3 92 92 WSW 7 11 30.25 1024 10 16 0.00 0.00
7:53 am 07:53 Sunny 29 -1.7 26 -3.3 89 89 W 5 7 30.25 1024 10 16 0.00 0.00
8:53 am 08:53 Sunny 31 -0.6 27 -2.8 85 85 W 8 13 30.26 1025 10 16 0.00 0.00
9:53 am 09:53 Sunny 35 1.7 29 -1.7 78 78 W 9 15 30.28 1025 10 16 0.00 0.00
10:53 am 10:53 Sunny 40 4.4 31 -0.6 70 70 NW 8 13 30.25 1025 10 16 0.00 0.00
11:53 am 11:53 Sunny 44 6.7 29 -1.7 55 55 NNW 9 15 30.26 1025 10 16 0.00 0.00
12:53 pm 12:53 Mostly Sunny 46 7.8 29 -1.7 51 51 WNW 12 19 30.22 1024 10 16 0.00 0.00
1:53 pm 13:53 Sunny 49 9.4 30 -1.1 48 48 WNW 8 13 30.20 1023 10 16 0.00 0.00
2:53 pm 14:53 Sunny 50 10 30 -1.1 46 46 WNW 7 11 30.17 1022 10 16 0.00 0.00
3:53 pm 15:53 Sunny 51 10.6 30 -1.1 44 44 VRB 6 9 30.14 1021 10 16 0.00 0.00
4:53 pm 16:53 Sunny 51 10.6 29 -1.7 43 43 NNW 5 7 30.13 1020 10 16 0.00 0.00
5:53 pm 17:53 Cloudy 51 10.6 30 -1.1 44 44 Calm 30.12 1020 10 16 0.00 0.00
6:53 pm 18:53 Cloudy 51 10.6 29 -1.7 43 43 Calm 30.11 1020 10 16 0.00 0.00
7:53 pm 19:53 Cloudy 47 8.3 34 1.1 61 61 SSW 5 7 30.12 1020 10 16 0.00 0.00
8:53 pm 20:53 Cloudy 46 7.8 34 1.1 63 63 SSW 6 9 30.13 1020 10 16 0.00 0.00
9:53 pm 21:53 Cloudy 46 7.8 35 1.7 66 66 SW 3 6 30.13 1020 10 16 0.00 0.00
10:53 pm 22:53 Cloudy 45 7.2 35 1.7 68 68 SSW 3 6 30.11 1020 10 16 0.00 0.00
11:53 pm 23:53 Cloudy 44 6.7 36 2.2 73 73 WSW 3 6 30.12 1020 10 16 0.00 0.00

Powered by AerisWeather